MOLNIYA 1-62

Last updated on Aug. 5, 2020, 5:33 a.m. UTC

1 15214U 84089A   20216.78745193  .00000755  00000-0 -11138-2 0  9991
2 15214  62.7065 126.2953 7312032 265.0919  16.1348  1.97924869230732
UTC
Height (km)
Latitude
Longitude
Inclination
Orbital Period
UTC large
Height (km)
Speed (km/s)
/
Latitude / Longitude
Inclination (degrees)
Orbital Period (minutes)
Azimuth
Elevation
Range (km)
Doppler Factor
iOS Compass Heading
iOS Angle

Next 30 passes for location: Hong Kong

Rise time Rise Azimuth (degrees) Set time Set Azimuth (degrees) Duration Max altitude (degrees)

No matching passes for this satellites